Flag for Austria Weather past 2 weeks in Krems, Lower Austria, Austria

Now
66 °F

Mild.


Feels Like: 66 °F
Forecast: 56 / 85 °F
Wind: 3 mph from Northeast

Location: Retz

Current Time: Jul 26, 2014 at 4:15:12 AM

Latest Report: Jul 26, 2014 at 3:00 AM


Visibility: N/A

Pressure: 29.92 "Hg

Humidity: 74%

Dew point: 57 °F

Location of KremsLocation

Historic Weather in Krems — Graph

°F

Krems temperature yesterday

Maximum temperature yesterday: 79 °F (at 5:00 PM)
Minimum temperature yesterday: 60 °F (at 7:00 AM)
Average temperature yesterday: 70 °F

Past Weeks' High & Low Weather Summary

 TemperatureHumidityPressure
High90 °F (Jul 20, 3:00 PM)96% (Jul 14, 6:00 AM)30.12 "Hg (Jul 14, 6:00 AM)
Low55 °F (Jul 11, 6:00 AM)34% (Jul 17, 3:00 PM)29.65 "Hg (Jul 21, 4:00 PM)
Average71 °F66%29.90 "Hg
* Reported Jul 11 3:00 AM — Jul 26 3:00 AM, Krems, Weather by CustomWeather, © 2014

Note: Actual official high and low records may vary slightly from our data, if they occured in-between our weather recording intervals... More about our weather records

Advertising

Krems weather history for previous 24 hours

 ConditionsComfort  
Time TempWeatherWind HumidityBarometerVisibility
3:00 AM
Jul 26
66 °FMild.3 mph74%29.92 "HgN/A
2:00 AM67 °FMild.2 mph72%29.92 "HgN/A
1:00 AM68 °FMild.2 mph69%29.93 "HgN/A
12:00 AM68 °FMild.3 mph69%29.93 "HgN/A
11:00 PM
Jul 25
70 °FMild.No wind59%29.91 "HgN/A
10:00 PM71 °FMild.2 mph57%29.90 "HgN/A
9:00 PM72 °FMild.2 mph55%29.89 "HgN/A
8:00 PM75 °FPassing clouds.3 mph54%29.88 "Hg17 mi
7:00 PM78 °FWarm.3 mph42%29.87 "HgN/A
6:00 PM78 °FWarm.3 mph44%29.87 "HgN/A
5:00 PM79 °FWarm.5 mph47%29.87 "HgN/A
4:00 PM78 °FWarm.5 mph49%29.87 "HgN/A
3:00 PM78 °FWarm.1 mph48%29.88 "HgN/A
2:00 PM77 °FPartly sunny.3 mph51%29.89 "Hg19 mi
1:00 PM76 °FMild.3 mph55%29.90 "HgN/A
12:00 PM73 °FMild.2 mph59%29.91 "HgN/A
11:00 AM70 °FMild.2 mph66%29.92 "HgN/A
10:00 AM67 °FMild.2 mph74%29.93 "HgN/A
9:00 AM66 °FMild.2 mph77%29.92 "HgN/A
8:00 AM63 °FPartly sunny.No wind79%29.93 "Hg12 mi
7:00 AM60 °FPartly sunny.1 mph84%29.92 "Hg11 mi
6:00 AM60 °FCool.2 mph83%29.90 "HgN/A
5:00 AM62 °FCool.3 mph81%29.89 "HgN/A
4:00 AM63 °FMild.5 mph77%29.88 "HgN/A
Weather by CustomWeather, © 2014

See weather overviewHow to use our weather pages